When you browse on this site, cookies collect data to enhance your experience and personalize the content and advertising you see.
Visit our Privacy Policy to learn more. By continuing to use the site, you agree to this use of cookies and data.
  • In Latvia
  • List of Countries
  • For 7 days
  • Water Temperature
  • Satellite Maps
  • Weather Map
  • Weather Widgets
  • user-avatar
    Login

    Hourly Weather Gloucester

    Today, 24 March, Sunday

    Time Temperature Precipitation Wind Pressure Humidity
    00:00 +6°C° 0 mm 2 mps 768 mmHg 72%
    01:00 +7°C° 0 mm 1 mps 768 mmHg 73%
    02:00 +6°C° 0 mm 1 mps 767 mmHg 74%
    03:00 +5°C° 0 mm 0 mps 767 mmHg 76%
    04:00 +5°C° 0 mm 1 mps 767 mmHg 79%
    05:00 +4°C° 0 mm 1 mps 767 mmHg 82%
    06:00 +3°C° 0 mm 1 mps 767 mmHg 84%
    07:00 +5°C° 0 mm 1 mps 767 mmHg 79%
    08:00 +6°C° 0 mm 2 mps 768 mmHg 74%
    09:00 +7°C° 0 mm 2 mps 768 mmHg 69%
    10:00 +8°C° 0 mm 3 mps 768 mmHg 66%
    11:00 +10°C° 0 mm 3 mps 767 mmHg 62%
    12:00 +11°C° 0 mm 4 mps 767 mmHg 58%
    13:00 +11°C° 0 mm 4 mps 767 mmHg 58%
    14:00 +10°C° 0 mm 5 mps 767 mmHg 59%
    15:00 +10°C° 0 mm 5 mps 767 mmHg 60%
    16:00 +9°C° 0 mm 5 mps 767 mmHg 65%
    17:00 +8°C° 0 mm 4 mps 766 mmHg 71%
    18:00 +7°C° 0 mm 4 mps 766 mmHg 76%
    19:00 +6°C° 0 mm 4 mps 766 mmHg 79%
    20:00 +5°C° 0 mm 4 mps 767 mmHg 82%
    21:00 +4°C° 0 mm 4 mps 767 mmHg 85%
    22:00 +4°C° 0 mm 4 mps 767 mmHg 87%
    23:00 +4°C° 0 mm 4 mps 767 mmHg 89%

    Tomorrow, 25 March, Monday

    Time Temperature Precipitation Wind Pressure Humidity
    00:00 +3°C° 0 mm 4 mps 767 mmHg 91%
    01:00 +3°C° 0 mm 4 mps 767 mmHg 92%
    02:00 +3°C° 0 mm 4 mps 767 mmHg 93%
    03:00 +3°C° 0 mm 3 mps 767 mmHg 94%
    04:00 +2°C° 0 mm 3 mps 767 mmHg 93%
    05:00 +2°C° 0 mm 3 mps 767 mmHg 93%
    06:00 +1°C° 0 mm 4 mps 767 mmHg 92%
    07:00 +2°C° 0 mm 5 mps 768 mmHg 84%
    08:00 +5°C° 0 mm 5 mps 768 mmHg 77%
    09:00 +5°C° 0 mm 6 mps 769 mmHg 69%
    10:00 +7°C° 0 mm 6 mps 769 mmHg 66%
    11:00 +8°C° 0 mm 5 mps 769 mmHg 63%
    12:00 +10°C° 0 mm 4 mps 769 mmHg 60%
    13:00 +10°C° 0 mm 4 mps 769 mmHg 58%
    14:00 +11°C° 0 mm 3 mps 769 mmHg 56%
    15:00 +11°C° 0 mm 3 mps 769 mmHg 55%
    16:00 +10°C° 0 mm 2 mps 769 mmHg 61%
    17:00 +9°C° 0 mm 2 mps 769 mmHg 67%
    18:00 +8°C° 0 mm 2 mps 769 mmHg 74%
    19:00 +6°C° 0 mm 2 mps 770 mmHg 77%
    20:00 +5°C° 0 mm 2 mps 770 mmHg 80%
    21:00 +4°C° 0 mm 2 mps 771 mmHg 84%
    22:00 +3°C° 0 mm 2 mps 771 mmHg 85%
    23:00 +3°C° 0 mm 2 mps 771 mmHg 86%

    Day after tomorrow, 26 March, Tuesday

    Time Temperature Precipitation Wind Pressure Humidity
    00:00 +3°C° 0 mm 1 mps 771 mmHg 87%
    01:00 +3°C° 0 mm 1 mps 771 mmHg 89%
    02:00 +3°C° 0 mm 1 mps 771 mmHg 90%
    03:00 +3°C° 0 mm 1 mps 770 mmHg 91%
    04:00 +3°C° 0 mm 1 mps 770 mmHg 91%
    05:00 +3°C° 0 mm 1 mps 770 mmHg 90%
    06:00 +2°C° 0 mm 1 mps 770 mmHg 90%
    07:00 +4°C° 0 mm 1 mps 770 mmHg 84%
    08:00 +7°C° 0 mm 1 mps 770 mmHg 78%
    09:00 +8°C° 0 mm 2 mps 770 mmHg 72%
    10:00 +9°C° 0 mm 2 mps 770 mmHg 68%
    11:00 +10°C° 0 mm 2 mps 770 mmHg 64%
    12:00 +13°C° 0 mm 2 mps 770 mmHg 61%
    13:00 +13°C° 0 mm 2 mps 770 mmHg 61%
    14:00 +13°C° 0 mm 3 mps 769 mmHg 61%
    15:00 +13°C° 0 mm 3 mps 769 mmHg 61%
    16:00 +12°C° 0 mm 3 mps 769 mmHg 67%
    17:00 +11°C° 0 mm 3 mps 769 mmHg 73%
    18:00 +10°C° 0 mm 3 mps 769 mmHg 79%
    19:00 +9°C° 0 mm 2 mps 769 mmHg 83%
    20:00 +7°C° 0 mm 2 mps 769 mmHg 87%
    21:00 +5°C° 0 mm 2 mps 770 mmHg 91%
    22:00 +5°C° 0 mm 2 mps 770 mmHg 92%
    23:00 +4°C° 0 mm 2 mps 770 mmHg 92%

    27 March, Wednesday

    Time Temperature Precipitation Wind Pressure Humidity
    00:00 +5°C° 0 mm 1 mps 770 mmHg 93%
    01:00 +4°C° 0 mm 1 mps 770 mmHg 92%
    02:00 +4°C° 0 mm 1 mps 770 mmHg 92%
    03:00 +4°C° 0 mm 1 mps 770 mmHg 92%
    04:00 +4°C° 0 mm 1 mps 770 mmHg 92%
    05:00 +4°C° 0 mm 1 mps 770 mmHg 92%
    06:00 +3°C° 0 mm 1 mps 770 mmHg 92%
    07:00 +5°C° 0 mm 1 mps 770 mmHg 88%
    08:00 +7°C° 0 mm 1 mps 770 mmHg 83%
    09:00 +8°C° 0 mm 2 mps 770 mmHg 79%
    10:00 +10°C° 0 mm 2 mps 770 mmHg 73%
    11:00 +12°C° 0 mm 2 mps 770 mmHg 68%
    12:00 +12°C° 0 mm 3 mps 770 mmHg 63%
    13:00 +13°C° 0 mm 3 mps 770 mmHg 62%
    14:00 +13°C° 0 mm 3 mps 770 mmHg 62%
    15:00 +14°C° 0 mm 3 mps 770 mmHg 62%
    16:00 +14°C° 0 mm 2 mps 770 mmHg 67%
    17:00 +13°C° 0 mm 2 mps 770 mmHg 72%
    18:00 +12°C° 0 mm 1 mps 770 mmHg 78%
    19:00 +10°C° 0 mm 1 mps 770 mmHg 82%
    20:00 +9°C° 0 mm 1 mps 770 mmHg 85%
    21:00 +7°C° 0 mm 2 mps 771 mmHg 89%
    22:00 +6°C° 0 mm 2 mps 771 mmHg 90%
    23:00 +5°C° 0 mm 2 mps 771 mmHg 91%

    28 March, Thursday

    Time Temperature Precipitation Wind Pressure Humidity
    00:00 +5°C° 0 mm 2 mps 771 mmHg 92%
    01:00 +4°C° 0 mm 2 mps 771 mmHg 92%
    02:00 +4°C° 0 mm 2 mps 771 mmHg 93%
    03:00 +3°C° 0 mm 2 mps 771 mmHg 94%
    04:00 +3°C° 0 mm 2 mps 771 mmHg 94%
    05:00 +4°C° 0 mm 1 mps 771 mmHg 94%
    06:00 +4°C° 0 mm 1 mps 771 mmHg 95%
    07:00 +6°C° 0 mm 1 mps 771 mmHg 90%
    08:00 +8°C° 0 mm 1 mps 772 mmHg 86%
    09:00 +9°C° 0 mm 1 mps 772 mmHg 82%
    10:00 +11°C° 0 mm 1 mps 772 mmHg 76%
    11:00 +13°C° 0 mm 1 mps 772 mmHg 70%
    12:00 +13°C° 0 mm 0 mps 771 mmHg 64%
    13:00 +14°C° 0 mm 0 mps 771 mmHg 62%
    14:00 +15°C° 0 mm 1 mps 770 mmHg 59%
    15:00 +16°C° 0 mm 1 mps 770 mmHg 57%
    16:00 +15°C° 0 mm 1 mps 770 mmHg 63%
    17:00 +13°C° 0 mm 1 mps 769 mmHg 68%
    18:00 +12°C° 0 mm 1 mps 769 mmHg 74%
    19:00 +11°C° 0 mm 1 mps 769 mmHg 78%
    20:00 +10°C° 0 mm 1 mps 770 mmHg 83%
    21:00 +8°C° 0 mm 1 mps 770 mmHg 87%
    22:00 +8°C° 0 mm 1 mps 770 mmHg 88%
    23:00 +8°C° 0 mm 1 mps 770 mmHg 89%

    29 March, Friday

    Time Temperature Precipitation Wind Pressure Humidity
    00:00 +7°C° 0 mm 1 mps 769 mmHg 90%
    01:00 +7°C° 0 mm 1 mps 769 mmHg 91%
    02:00 +6°C° 0 mm 1 mps 769 mmHg 91%
    03:00 +6°C° 0 mm 1 mps 769 mmHg 92%
    04:00 +6°C° 0 mm 1 mps 769 mmHg 93%
    05:00 +6°C° 0 mm 1 mps 769 mmHg 93%
    06:00 +5°C° 0 mm 1 mps 768 mmHg 93%
    07:00 +7°C° 0 mm 1 mps 768 mmHg 87%
    08:00 +8°C° 0 mm 2 mps 768 mmHg 81%
    09:00 +10°C° 0 mm 2 mps 768 mmHg 75%
    10:00 +13°C° 0 mm 2 mps 768 mmHg 69%
    11:00 +13°C° 0 mm 3 mps 768 mmHg 63%
    12:00 +14°C° 0 mm 3 mps 767 mmHg 57%
    13:00 +16°C° 0 mm 3 mps 767 mmHg 58%
    14:00 +16°C° 0 mm 3 mps 766 mmHg 59%
    15:00 +15°C° 0 mm 4 mps 766 mmHg 60%
    16:00 +14°C° 0 mm 3 mps 766 mmHg 66%
    17:00 +12°C° 0 mm 3 mps 765 mmHg 72%
    18:00 +11°C° 0 mm 3 mps 765 mmHg 78%
    19:00 +9°C° 0 mm 3 mps 765 mmHg 79%
    20:00 +8°C° 0 mm 3 mps 766 mmHg 79%
    21:00 +5°C° 0 mm 3 mps 766 mmHg 80%
    22:00 +5°C° 0 mm 3 mps 766 mmHg 81%
    23:00 +4°C° 0 mm 3 mps 765 mmHg 82%
    Show more